Voltar ao catálogo

FENGYUN 1C DEB

LostSSO
NORAD 36156·DEBRIS·🇨🇳 China

Lançado May 10, 1999 de Taiyuan Satellite Launch Center

Loading…

Próximas Passagens (próximas 24 horas)

TLE

ObsoletoSource: Space-Track

Época: Sep 22, 2022, 11:19 UTC

1 36156U 99025DSD 22265.47173818  .00003086  00000-0  11556-2 0  9999
2 36156  98.7257 353.3993 0046446 297.5882 120.7293 14.31876868721423

Acompanhe FENGYUN 1C DEB em tempo real com AllMySat

Download on the App Store